PACCTY-2 Weather Reports


Display with metric or nautical units.
time (UTC)temp
F
wind
direction
speed
MPH
gust
MPH
rain 1hr
in
rain 24hr
in
rain mn
in
humidity
%
barometer
mb
20260510124210 53 0 0.0 7.0 0.00 0.00 0.00
20260510120701 54 5 5.0 9.0 0.00 0.00 0.00
20260510114657 54 2 6.0 10.0 0.00 0.00 0.00
20260510114158 54 4 6.0 10.0 0.00 0.00 0.00
20260510113747 54 1 6.0 10.0 0.00 0.01 0.00
20260510113655 54 1 6.0 10.0 0.00 0.01 0.00
20260510113154 54 4 7.0 10.0 0.00 0.01 0.00
20260510111150 54 357 10.0 14.0 0.00 0.01 0.00
20260510110148 54 344 10.0 12.0 0.00 0.01 0.00
20260510105647 54 357 8.0 12.0 0.00 0.01 0.00
20260510105146 54 355 9.0 11.0 0.00 0.01 0.00
20260510104645 54 5 10.0 11.0 0.00 0.01 0.00
20260510104144 53 1 8.0 11.0 0.00 0.01 0.00
20260510103643 53 345 8.0 10.0 0.00 0.01 0.00
20260510103144 54 336 7.0 10.0 0.00 0.01 0.00
20260510102642 54 338 8.0 10.0 0.00 0.01 0.00
20260510101140 54 14 6.0 12.0 0.00 0.01 0.00
20260510095635 54 1 7.0 9.0 0.00 0.01 0.00
20260510095134 54 350 6.0 12.0 0.00 0.01 0.00
20260510093130 54 2 9.0 11.0 0.00 0.01 0.00
20260510092629 54 7 8.0 11.0 0.00 0.01 0.00
20260510090124 54 351 7.0 11.0 0.00 0.01 0.00
20260510084122 54 2 7.0 13.0 0.00 0.01 0.00
20260510082617 54 341 8.0 13.0 0.00 0.01 0.00
20260510082116 54 347 8.0 13.0 0.00 0.01 0.00
20260510081114 54 337 10.0 12.0 0.00 0.01 0.00
20260510080613 54 7 8.0 15.0 0.00 0.01 0.00
20260510080112 54 343 9.0 15.0 0.00 0.01 0.00
20260510074609 54 341 11.0 13.0 0.00 0.01 0.00
20260510073106 54 343 11.0 12.0 0.00 0.01 0.00
20260510072104 54 4 9.0 12.0 0.00 0.01 0.00
20260510071102 54 1 8.0 9.0 0.00 0.01 0.00
20260510070100 54 2 8.0 12.0 0.00 0.01 0.00
20260510065559 54 355 7.0 12.0 0.00 0.01 0.00
20260510065058 54 7 9.0 10.0 0.00 0.01 0.00
20260510064056 54 347 8.0 11.0 0.00 0.01 0.00
20260510062556 54 32 7.0 12.0 0.00 0.01 0.00
20260510062053 54 1 7.0 12.0 0.00 0.01 0.00
20260510061551 54 5 8.0 12.0 0.00 0.01 0.00
20260510061050 54 7 8.0 12.0 0.00 0.01 0.00
20260510060549 54 7 8.0 10.0 0.00 0.01 0.00
20260510060048 54 7 5.0 10.0 0.00 0.01 0.00
20260510054548 54 8 7.0 14.0 0.00 0.01 0.00
20260510053545 55 4 8.0 15.0 0.00 0.01 0.00
20260510052541 55 354 10.0 15.0 0.00 0.01 0.00
20260510052040 55 7 10.0 17.0 0.00 0.01 0.00
20260510051539 55 347 10.0 17.0 0.00 0.01 0.00
20260510051038 55 348 11.0 17.0 0.00 0.01 0.00
20260510050038 55 2 13.0 18.0 0.00 0.01 0.00
20260510045535 55 347 13.0 18.0 0.00 0.01 0.00
20260510045034 55 347 13.0 16.0 0.00 0.01 0.00
20260510044533 55 348 14.0 16.0 0.00 0.01 0.00
20260510044033 55 351 13.0 16.0 0.00 0.01 0.00
20260510042531 55 4 11.0 17.0 0.00 0.01 0.00
20260510042029 55 343 14.0 17.0 0.00 0.01 0.00
20260510040525 55 345 13.0 18.0 0.00 0.01 0.00
20260510040024 55 2 12.0 18.0 0.00 0.01 0.00
20260510035022 55 351 13.0 17.0 0.00 0.01 0.00
20260510034522 55 355 14.0 17.0 0.00 0.01 0.00
20260510034021 55 340 12.0 16.0 0.00 0.01 0.00
20260510033019 55 347 12.0 15.0 0.00 0.01 0.00
20260510032519 55 341 11.0 15.0 0.00 0.01 0.00
20260510032019 55 355 12.0 15.0 0.00 0.01 0.00
20260510030054 56 2 13.0 18.0 0.00 0.01 0.00
20260510030013 56 2 13.0 18.0 0.00 0.01 0.00
20260510025012 56 0 12.0 19.0 0.00 0.01 0.00
20260510024511 56 348 12.0 19.0 0.00 0.01 0.00
20260510024008 56 1 14.0 19.0 0.00 0.01 0.00
20260510023509 57 7 13.0 18.0 0.00 0.01 0.00
20260510023007 57 350 14.0 18.0 0.00 0.01 0.00
20260510022505 57 336 13.0 18.0 0.00 0.01 0.00
20260510022005 57 337 12.0 17.0 0.00 0.01 0.00
20260510021503 57 333 14.0 17.0 0.00 0.01 0.00
20260510021002 57 345 14.0 20.0 0.00 0.01 0.00
20260510015459 57 333 16.0 19.0 0.00 0.01 0.00
20260510014958 58 334 15.0 18.0 0.00 0.01 0.00
20260510014457 58 336 15.0 18.0 0.00 0.01 0.00
20260510013956 58 337 15.0 19.0 0.00 0.01 0.00
20260510013455 58 340 15.0 19.0 0.00 0.01 0.00
20260510012954 58 337 15.0 19.0 0.00 0.01 0.00
20260510012503 58 351 14.0 18.0 0.00 0.01 0.00
20260510012453 58 351 14.0 18.0 0.00 0.01 0.00
20260510011952 58 350 14.0 20.0 0.00 0.01 0.00
20260510010950 58 348 15.0 20.0 0.00 0.01 0.00
20260510005447 58 354 15.0 22.0 0.00 0.01 0.00
20260510004445 58 0 14.0 19.0 0.00 0.01 0.00
20260510003443 59 350 16.0 19.0 0.00 0.01 0.00
20260510002943 59 355 14.0 18.0 0.00 0.01 0.00
20260510001940 59 348 16.0 20.0 0.00 0.01 0.00
20260510001439 59 351 15.0 20.0 0.00 0.01 0.00
20260510000940 59 7 15.0 20.0 0.00 0.01 0.00
20260509235936 59 351 14.0 19.0 0.00 0.01 0.00
20260509235435 59 345 14.0 19.0 0.00 0.01 0.00
20260509234433 59 350 12.0 17.0 0.00 0.01 0.00
20260509232930 59 350 14.0 19.0 0.00 0.01 0.00
20260509231929 59 348 13.0 19.0 0.00 0.01 0.00